Weather in Petryaksy

Russia / Nizhny Novgorod Oblast'     55°24′42″N   46°02′04″E
temp.,
°C
wind,
m/s
gust,
m/s
humid.,
%
clouds,
%
prec.,
mm/h
press.,
hPa
HPBL,
m
29 june, wed
wed2900:00+9nne34764 0.0 102165
03:00+7n22775 0.0 102217
06:00+10n36745 0.0 1022263
09:00+14n35585 0.0 10221005
12:00+17nnw45525 0.0 10211582
15:00+18nnw45485 0.0 10191831
18:00+18nw35634 0.0 1018263
21:00+12nw22754 0.0 101821
30 june, thu
thu3000:00+10wnw226896 0.0 101822
03:00+10wnw347396 0.0 101763
06:00+12nw487595 0.0 1016249
09:00+17nw466068 0.0 1014722
12:00+19nnw57465 0.0 10142036
15:00+19nw3657100 0.0 1013884
18:00+17nne61159100 0.0 1012527
21:00+13nne2467100 0.0 101481
1 july, fri
fri100:00+9nne228484 0.0 101629
03:00+9n267496 0.0 1016150
06:00+10n410715 0.0 1017478
09:00+14n710564 0.0 10171312
12:00+16nne7105489 0.0 10161800
15:00+17nne8105215 0.1 10171894
18:00+16ne59635 0.0 10171111
21:00+11nne227951 0.0 101822
2 july, sat
sat200:00+9nnw22825 0.0 101817
03:00+9nnw3375100 0.0 101844
06:00+12nnw36745 0.0 1018169
09:00+18nnw345872 0.0 1016577
12:00+20nw445387 0.0 10151017
15:00+16wnw2578100 0.0 1015252
18:00+19nnw357212 0.0 1014676
21:00+13nnw22925 0.1 101524
3 july, sun
sun300:00+12n22894 0.0 101510
03:00+11n22899 0.0 101611
06:00+14n23830 0.0 1016127
09:00+20n33665 0.0 1017600
12:00+23n225322 0.0 10171451
15:00+24nw225043 0.0 10171679
18:00+23wnw236548 0.0 1017156
21:00+17w22744 0.0 101811